This is the latest recevied weather packets stored in our database for station/object OK2ILA-3. If no packets are shown the sender has not sent any weather packets the latest 10 day(s).
| Time | Temp. | Humidity | Pressure | Rain* | Wind** | Luminosity | Snow |
|---|---|---|---|---|---|---|---|
| 1778122912 | 12.22° C | 3% | 921.6 hPa | 0 mm | - | - | - |
| 1778122306 | 12.22° C | 28% | 6329 hPa | 0 mm | - | - | - |
| 1778121701 | 12.22° C | 100% | 6329 hPa | 0 mm | - | - | - |
| 1778121096 | 12.22° C | 10% | 6329 hPa | 0 mm | - | - | - |
| 1778120489 | 12.22° C | 7% | 0 hPa | 0 mm | - | - | - |
| 1778119884 | 12.22° C | 12% | 54.8 hPa | 0 mm | - | - | - |
| 1778119280 | 12.22° C | 3% | 137.6 hPa | 0 mm | - | - | - |
| 1778118672 | 12.22° C | 7% | 137.6 hPa | 0 mm | - | - | - |
| 1778118069 | 12.78° C | 53% | 137.6 hPa | 0 mm | - | - | - |
| 1778117466 | 12.78° C | 53% | 137.6 hPa | 0 mm | - | - | - |
| 1778116857 | 12.78° C | 100% | 1049.8 hPa | 0 mm | - | - | - |
| 1778116253 | 12.78° C | 11% | 1049.8 hPa | 0 mm | - | - | - |
| 1778115650 | 12.78° C | 30% | 1049.8 hPa | 0 mm | - | - | - |
| 1778115042 | 13.33° C | 16% | 1049.8 hPa | 0 mm | - | - | - |
| 1778114436 | 13.33° C | 52% | 1049.8 hPa | 0 mm | - | - | - |
| 1778113824 | 13.33° C | 11% | 1049.8 hPa | 0 mm | - | - | - |
| 1778113217 | 12.78° C | 13% | 1689.8 hPa | 0 mm | - | - | - |
| 1778112613 | 13.33° C | 6% | 1689.8 hPa | 0 mm | - | - | - |
| 1778112009 | 13.33° C | 88% | 1689.8 hPa | 0 mm | - | - | - |
| 1778111401 | 13.89° C | 100% | 208 hPa | 0 mm | - | - | - |
| 1778110797 | 13.33° C | 1% | 208 hPa | 0 mm | - | - | - |
| 1778110191 | 13.33° C | 2% | 902.4 hPa | 0 mm | - | - | - |
| 1778109582 | 13.33° C | 6% | 4096.3 hPa | 0 mm | - | - | - |
| 1778108978 | 13.33° C | 53% | 4096.3 hPa | 0 mm | - | - | - |
| 1778108368 | 13.89° C | 2% | 4096.3 hPa | 0 mm | - | - | - |
* Rain latest 24 hours (hover to see other rain measurements)
** Current wind speed in m/s (hover to see current wind gust speed)